GEFSSGP_500_meanwind_234.txt.gz
Wind_Speed
19 20 20 20 21 21 21 22 22 21 19 17 16 15 13 12 10 9 8 9 7 6 5 4 5 5 6 7 8 9 10 11 12 13 12 12 12 12 12 11 11 10 10 10 10 9 10 9 9
19 20 19 20 21 21 22 23 23 22 20 18 18 17 15 13 11 10 9 9 7 7 6 6 6 7 7 8 9 10 11 12 12 13 12 12 12 12 11 10 10 10 10 9 9 10 9 9 8
19 19 20 21 21 21 22 23 23 22 21 20 19 18 16 13 12 11 9 9 8 7 7 7 7 7 8 9 10 11 12 13 13 13 12 12 12 12 11 10 11 10 10 9 9 9 9 9 8
18 19 20 20 21 21 21 22 22 22 22 21 20 18 16 14 12 11 10 9 8 8 8 8 7 7 8 9 10 12 13 13 12 12 12 12 12 11 11 11 11 10 10 10 9 8 9 8 7
17 18 20 20 20 21 21 22 22 23 22 21 20 19 17 14 13 12 11 9 9 9 9 9 9 8 9 10 10 11 12 12 12 11 11 11 11 10 10 10 10 9 9 9 9 8 8 8 7
15 16 18 20 20 21 21 22 22 22 21 21 20 19 18 16 14 13 12 10 10 10 10 9 9 9 10 11 11 11 11 11 12 11 11 11 10 10 9 10 9 10 9 9 9 7 7 7 7
14 15 17 19 20 20 21 22 22 22 21 20 20 20 18 17 15 14 13 11 11 11 10 9 10 10 11 11 11 11 11 11 12 12 12 11 10 10 9 9 9 10 9 9 8 7 7 6 6
13 14 15 17 19 19 20 21 21 20 20 19 19 19 19 17 15 14 14 13 12 12 11 10 11 11 11 12 11 11 11 11 11 11 12 11 11 10 9 10 9 9 9 9 8 7 7 6 6
12 12 13 15 17 18 19 20 20 20 19 19 19 18 18 18 16 15 14 14 13 13 12 10 11 11 11 11 10 10 10 11 11 11 11 11 11 10 10 10 9 9 8 8 8 7 6 6 6
10 11 11 13 15 16 17 18 19 19 18 18 18 17 17 17 16 15 14 14 13 13 12 12 12 11 12 11 10 9 9 10 10 10 9 10 9 10 9 9 9 9 8 8 8 7 6 5 5
6 8 9 10 12 14 16 17 18 19 19 17 16 16 16 16 15 14 14 13 13 13 13 12 12 11 11 11 10 8 9 10 10 10 9 9 9 9 8 9 8 9 8 8 7 7 6 6 6
4 5 6 8 10 12 14 16 17 18 18 17 16 15 14 14 14 14 12 13 13 13 12 12 11 12 11 11 10 10 10 10 10 9 9 9 9 8 8 8 8 8 7 7 7 7 6 7 7
2 3 4 6 7 9 11 13 15 16 16 16 15 14 13 14 14 13 12 12 12 12 11 11 11 11 11 11 11 11 10 10 10 9 9 9 9 8 8 8 8 8 7 6 6 6 5 6 7
3 1 1 3 4 6 8 11 12 14 14 15 14 14 13 13 13 13 12 11 11 11 11 11 11 11 10 10 10 10 10 10 10 9 8 8 8 8 7 8 8 7 6 5 6 5 5 6 7
5 2 1 0 1 3 6 9 10 10 11 12 12 13 12 12 12 12 11 11 11 11 11 11 10 11 10 9 9 10 9 9 9 8 8 8 8 7 7 7 7 5 5 5 6 5 4 4 6
8 6 4 2 1 1 4 7 7 8 9 10 10 11 11 11 11 11 10 10 10 10 11 11 10 10 9 9 8 8 8 8 7 7 7 7 6 6 5 6 5 5 5 5 5 4 4 5 5
11 9 6 5 4 3 1 4 5 7 8 8 9 9 9 9 10 10 10 10 9 9 9 9 9 9 9 8 7 6 6 6 6 6 6 6 6 5 4 4 4 4 4 5 5 4 5 5 5
14 12 9 8 8 7 4 1 3 5 6 7 7 7 7 7 8 8 8 8 8 7 6 7 8 7 7 7 6 6 5 5 5 6 5 5 5 5 4 3 3 3 4 4 4 4 5 5 5
17 14 12 11 11 10 8 5 4 4 6 6 6 6 6 6 6 6 6 6 7 6 4 5 5 5 5 5 5 4 4 4 4 4 4 4 4 4 4 4 3 3 4 4 4 5 5 6 6
18 17 15 14 14 14 12 9 7 6 6 6 6 5 4 4 5 6 6 5 5 5 4 3 3 3 3 3 3 3 3 4 4 3 3 3 3 4 4 4 4 4 4 5 5 6 7 7 7
19 18 17 17 17 16 15 12 10 9 7 7 7 6 5 5 5 6 5 5 4 5 4 3 2 2 1 1 1 1 1 3 3 2 2 3 4 4 4 4 4 5 5 6 6 7 7 8 9
20 19 18 19 19 19 18 16 12 11 10 9 9 9 8 8 7 7 6 5 5 6 5 4 3 2 2 1 1 1 2 2 2 3 3 4 4 4 5 5 5 6 7 7 8 8 8 9 9
21 22 21 21 21 21 19 18 13 12 12 10 10 10 10 9 9 8 7 7 7 7 6 6 4 4 4 4 3 3 4 4 4 4 4 5 6 6 7 7 8 8 8 9 9 10 10 10 11
23 24 24 23 23 22 20 20 17 14 14 13 12 12 12 11 9 8 7 7 8 8 7 7 6 5 5 5 5 5 6 5 5 5 6 7 7 8 8 9 9 9 10 11 11 11 11 11 12
24 25 25 25 25 23 21 22 20 17 17 15 14 13 13 11 10 9 8 8 9 9 9 9 8 7 7 6 7 7 7 7 7 7 8 8 8 9 10 10 10 11 12 13 13 13 13 13 13
25 25 26 27 26 24 24 24 22 20 20 18 16 15 14 13 11 10 10 10 10 10 11 10 9 9 10 9 9 9 9 9 9 9 8 9 10 10 11 11 11 12 13 13 14 14 15 15 15
26 26 26 28 28 27 26 24 22 22 22 20 18 17 16 15 13 12 11 10 11 12 12 12 12 12 11 11 12 11 11 11 11 11 11 10 11 12 13 14 14 14 14 14 14 15 15 16 17
26 26 28 30 30 29 27 25 23 22 23 22 20 19 17 16 14 13 14 13 13 13 13 13 14 13 13 14 14 13 12 12 12 13 14 14 15 15 15 16 16 16 16 16 17 17 18 18 19
28 28 29 30 31 31 30 27 23 23 23 23 21 19 19 18 16 16 16 16 15 14 14 14 15 15 15 15 16 16 15 14 14 15 15 16 17 17 17 17 18 18 18 18 19 20 20 20 21
30 30 30 31 31 32 32 29 25 24 23 24 24 22 21 19 18 17 18 18 18 17 17 18 17 17 16 16 17 18 17 17 17 17 17 18 18 19 19 18 19 19 19 20 20 21 21 21 21

GEFSSGP_500_meanwind_240.txt.gz
Wind_Speed
19 18 18 18 20 19 17 16 16 15 14 13 12 11 11 10 8 7 6 5 6 5 6 6 8 9 10 10 11 13 13 14 13 13 13 13 14 14 14 13 13 13 12 11 11 10 10 9 8
18 18 18 19 21 17 17 17 16 16 15 14 13 12 12 11 9 8 7 6 6 6 5 6 7 9 10 10 12 13 14 14 14 14 13 13 13 15 15 13 12 12 11 11 11 10 10 9 8
18 18 18 20 18 17 17 17 17 16 15 15 14 13 12 12 11 10 8 7 7 6 5 6 7 9 10 9 11 13 14 14 15 14 14 13 14 15 14 12 12 12 11 11 11 10 9 9 8
17 17 18 18 16 16 16 17 17 16 16 15 15 14 14 12 11 10 9 8 7 6 6 6 8 8 9 9 10 12 14 14 15 14 15 14 14 14 13 13 12 12 11 11 10 10 9 9 8
15 16 18 16 15 16 16 16 16 17 17 16 15 15 15 13 11 10 9 8 7 7 6 6 7 8 9 9 10 12 13 14 15 15 15 14 14 13 12 12 11 11 11 11 9 9 8 8 8
14 16 16 14 14 15 15 16 16 17 17 17 16 16 15 14 12 10 9 9 8 7 6 6 7 8 8 10 11 12 13 14 16 15 14 14 13 12 12 10 11 10 10 10 10 8 9 8 8
14 15 14 14 14 14 15 15 16 17 17 17 16 17 16 15 14 12 10 10 8 7 7 7 8 7 7 9 11 12 13 14 14 14 13 13 13 12 11 11 11 10 10 10 10 8 8 8 7
12 14 13 13 14 14 14 15 15 16 17 16 16 16 16 15 14 13 12 10 9 9 8 8 8 7 8 9 10 12 13 13 13 13 12 12 12 11 11 10 10 10 10 9 9 8 8 7 7
11 13 11 12 13 14 15 15 15 15 16 16 16 16 16 15 14 13 12 11 10 9 8 8 8 8 8 9 10 11 12 13 12 13 13 13 12 11 11 10 10 9 9 8 8 8 7 7 7
10 10 10 10 12 13 14 15 15 15 15 15 15 15 15 15 14 13 12 11 10 9 8 8 8 7 7 8 9 10 11 11 12 12 13 12 11 11 11 10 10 9 9 8 8 7 6 6 6
8 9 9 9 10 12 13 14 14 14 14 14 14 14 14 14 14 13 12 11 11 9 8 7 7 7 8 8 9 9 11 11 11 11 12 12 12 11 10 9 10 8 9 8 8 6 6 5 5
6 6 6 7 8 9 11 12 13 13 13 13 13 13 13 13 13 12 11 10 10 10 8 7 7 7 8 8 8 8 10 10 11 11 10 10 12 11 11 10 9 9 8 8 8 6 6 6 6
4 4 4 5 5 7 9 11 11 12 12 12 12 12 12 13 12 12 11 10 9 9 9 8 7 8 8 7 6 7 7 9 10 11 10 10 11 11 11 10 9 9 8 8 8 7 7 5 5
4 3 2 3 4 5 7 8 9 10 11 11 11 11 11 12 12 11 11 10 9 8 8 7 7 6 6 7 6 6 7 8 10 10 9 10 10 9 9 9 8 8 7 7 7 7 6 5 5
4 3 2 1 1 2 4 6 7 8 10 10 10 10 10 11 11 10 10 9 9 8 7 7 7 7 6 6 6 6 7 9 9 9 9 9 9 9 8 8 7 7 7 7 7 7 5 5 5
6 5 4 4 2 1 1 3 5 6 8 9 9 9 9 9 9 9 9 9 8 7 7 7 6 6 6 6 6 6 7 8 8 8 8 8 8 8 8 8 8 7 7 6 6 6 5 5 5
8 8 8 8 5 3 1 0 2 4 6 7 8 8 8 8 8 7 7 7 7 6 6 5 5 5 5 6 6 6 6 7 7 7 7 7 8 8 7 8 7 6 6 5 5 6 5 5 5
11 11 10 9 8 6 4 3 4 3 4 5 6 7 7 7 8 7 6 6 6 5 4 4 4 3 3 4 4 5 5 5 6 6 6 7 6 6 6 6 6 5 5 5 5 5 5 5 5
13 13 12 11 10 8 7 6 6 5 5 4 5 5 6 7 7 6 6 5 5 4 3 4 3 2 2 2 2 2 3 3 4 4 4 4 5 5 5 5 5 4 4 4 4 5 5 5 5
15 14 13 13 13 11 10 9 8 7 6 5 5 5 5 6 6 6 6 6 5 5 4 3 3 2 1 1 0 0 1 2 3 3 3 4 4 5 5 5 5 5 5 5 5 5 5 5 5
16 16 15 16 15 14 12 10 10 9 8 7 6 6 6 6 6 6 6 6 6 5 5 4 3 3 2 2 2 2 2 3 3 3 4 4 5 5 6 6 6 6 6 6 6 6 6 6 6
17 18 18 17 16 14 14 12 12 11 9 9 8 8 8 8 7 7 7 6 6 6 6 5 5 5 5 4 4 4 4 4 4 4 5 5 6 6 6 7 7 7 7 7 7 8 8 8 8
19 19 19 19 18 17 16 15 14 14 12 10 10 9 9 9 8 8 7 7 8 8 7 7 6 6 6 6 6 5 5 6 6 6 6 6 7 7 7 7 7 8 8 8 9 10 10 10 10
20 20 20 20 19 20 18 17 15 15 14 12 12 12 11 11 11 10 9 9 9 9 9 8 8 8 8 8 8 8 7 8 8 8 8 8 8 8 8 9 9 9 10 10 10 11 11 12 12
20 19 19 19 19 20 19 19 17 17 16 15 15 15 14 13 12 12 11 12 11 11 10 10 9 9 9 9 10 9 9 9 10 10 10 10 10 10 10 11 11 12 12 12 12 13 13 13 14
21 20 19 18 18 19 21 21 19 18 17 16 16 16 15 15 14 14 13 13 12 12 12 11 11 11 11 11 11 11 12 11 12 12 12 12 12 12 12 13 13 13 14 14 14 15 15 16 16
22 22 21 21 21 21 21 21 20 20 19 18 18 18 17 17 16 16 15 15 14 14 14 13 12 12 12 13 13 12 13 13 14 14 14 13 13 13 14 14 15 16 16 17 18 18 18 18 18
23 22 22 22 22 22 22 22 21 21 19 19 20 20 19 19 18 18 17 17 17 16 15 14 14 13 14 15 15 14 14 14 15 15 14 15 15 15 15 16 17 17 18 19 19 19 20 20 20
25 25 25 25 25 23 22 21 21 21 20 19 19 20 19 20 20 20 19 18 18 18 17 16 16 15 16 16 16 16 16 16 15 15 16 17 17 17 18 18 18 19 20 20 20 20 21 22 22
27 27 27 27 27 26 25 24 23 22 21 20 20 21 21 22 22 22 22 21 20 20 19 18 18 18 18 18 18 18 18 18 18 17 18 19 19 19 20 20 20 20 21 21 21 21 21 21 22

GEFSSGP_500_meanwind_246.txt.gz
Wind_Speed
19 19 19 19 21 19 13 11 11 9 8 7 6 4 4 2 2 2 3 4 3 2 1 1 3 5 6 8 9 10 10 10 10 10 10 11 11 10 10 10 11 11 11 11 10 10 9 8 8
19 17 18 21 22 15 12 11 11 10 9 7 7 6 5 3 2 2 2 3 3 2 1 1 3 4 6 7 7 9 10 10 11 11 10 11 11 10 10 10 11 12 11 10 9 9 8 7 8
18 17 21 22 18 13 12 12 11 11 10 9 8 6 5 4 3 3 3 3 2 2 2 1 3 4 5 6 7 9 9 10 11 10 11 11 11 10 9 10 10 11 10 10 9 9 7 7 7
17 21 23 20 13 12 12 12 12 12 10 9 8 7 6 6 5 5 6 5 4 3 2 2 3 4 5 5 7 9 9 10 10 10 11 12 12 10 9 10 10 10 10 9 9 8 8 7 7
19 23 20 15 12 11 12 13 12 12 11 10 9 9 8 7 7 7 7 7 5 4 4 4 4 4 4 7 8 9 9 10 10 11 11 12 11 11 10 10 10 10 9 9 8 9 8 7 6
20 20 16 13 11 11 12 13 12 11 11 11 10 9 9 8 8 7 8 8 7 7 6 5 5 4 5 7 8 8 9 9 10 11 12 12 11 10 10 10 10 9 9 9 9 9 8 7 6
17 16 13 11 11 11 10 10 11 12 12 11 11 10 10 9 9 9 9 9 8 7 6 5 4 5 5 5 6 7 9 9 10 11 11 11 10 10 10 10 9 9 9 8 8 7 7 6 6
15 14 12 9 9 10 11 10 11 12 12 12 12 12 12 11 10 10 9 9 9 9 7 5 4 5 6 5 4 7 9 9 10 11 11 10 10 10 9 9 9 8 8 8 7 6 5 5 5
11 12 10 7 7 9 10 10 11 12 12 13 13 13 12 12 11 11 11 10 10 11 9 6 4 5 6 6 5 7 8 10 10 10 10 9 9 9 8 8 7 7 7 6 6 5 4 5 6
8 9 9 7 7 8 9 10 11 12 12 13 13 14 13 12 12 12 12 12 11 11 10 8 6 7 6 6 5 7 7 8 8 9 9 9 9 8 8 7 6 6 6 5 4 5 4 4 5
6 6 5 5 6 7 8 9 11 12 12 13 13 13 13 13 13 12 12 12 12 11 11 10 8 8 7 6 5 6 5 6 7 8 8 8 8 7 7 7 6 6 5 5 4 5 5 5 5
4 3 3 4 5 7 8 8 9 10 12 13 12 12 13 12 12 13 13 12 12 12 11 10 9 8 6 6 5 5 5 6 6 7 7 7 8 7 7 7 6 6 5 4 4 3 4 4 4
1 2 4 5 6 6 7 7 8 10 11 12 12 13 13 13 13 13 13 12 11 11 10 9 9 7 6 5 5 5 4 5 5 6 6 6 6 6 7 6 6 5 4 4 3 2 3 3 3
2 1 2 4 4 5 7 6 8 9 11 11 12 12 13 13 13 13 13 12 11 11 11 10 9 8 6 5 4 4 3 4 5 5 5 5 5 5 6 5 5 5 4 3 3 2 3 4 3
3 2 2 4 5 6 7 8 8 9 9 10 11 12 13 13 13 12 12 12 11 11 10 10 9 9 6 4 4 3 2 3 4 5 4 5 4 4 4 4 4 4 4 3 3 3 3 4 3
4 4 4 5 6 8 8 9 10 9 8 8 10 11 11 12 13 12 11 11 11 11 10 9 8 8 7 5 4 3 3 2 3 4 4 4 4 4 3 4 4 4 4 3 3 3 4 4 4
6 7 6 6 6 8 9 9 10 8 8 9 8 9 10 11 12 12 11 10 10 10 9 9 7 7 7 6 5 4 2 2 3 3 3 3 4 4 3 3 4 4 4 4 3 3 3 4 4
7 7 6 7 8 8 9 9 13 12 11 9 8 9 9 9 10 11 10 10 9 9 9 8 7 7 7 6 5 4 3 2 3 2 2 3 3 4 3 3 3 4 4 4 3 2 3 4 4
11 10 9 9 10 9 9 10 13 14 13 10 10 9 10 10 9 9 9 9 9 9 8 8 7 6 6 5 5 3 3 2 2 1 1 2 3 3 3 4 4 3 3 3 3 3 4 5 5
15 12 10 12 12 11 11 12 12 14 14 12 11 11 11 11 9 9 10 10 9 8 8 7 7 6 6 5 4 4 3 2 1 1 1 2 2 3 4 4 4 3 3 3 4 4 4 6 6
16 14 13 14 14 12 12 14 14 14 14 14 13 13 12 12 10 9 9 9 9 8 7 7 7 7 7 6 5 4 4 4 3 3 3 3 2 2 3 4 5 5 4 4 5 5 6 7 7
15 15 15 15 15 14 14 17 17 17 15 14 14 13 13 13 11 11 10 10 9 8 8 8 8 8 7 7 6 6 6 5 4 4 5 5 4 5 5 5 6 6 6 6 6 7 8 8 9
17 17 18 17 17 17 17 19 19 18 15 13 13 13 14 13 13 12 11 11 10 10 10 9 9 9 8 8 7 7 7 7 6 6 6 6 6 6 7 7 7 7 7 7 8 8 8 9 10
17 16 16 17 18 20 18 20 22 20 18 17 15 13 15 15 16 15 14 13 12 12 12 12 11 11 10 10 9 9 8 8 8 8 8 8 8 8 8 8 8 9 9 9 9 10 10 11 11
16 15 16 17 19 19 16 19 22 21 21 19 17 15 16 17 18 18 16 15 14 14 14 13 12 12 11 11 10 10 10 10 10 10 10 10 10 10 10 10 10 10 11 11 12 12 12 13 13
17 17 18 18 18 17 15 18 18 19 21 21 18 17 19 18 19 19 18 16 15 15 14 14 14 13 12 12 12 11 11 11 11 11 12 12 12 12 12 12 12 12 13 14 14 14 14 14 15
19 20 19 19 20 20 19 18 19 18 18 19 18 18 19 19 19 21 20 18 17 16 16 15 15 15 14 14 13 13 13 12 12 12 12 13 13 13 13 14 14 14 15 16 16 16 16 16 17
19 18 19 20 21 22 20 19 20 18 17 18 19 20 21 19 20 21 21 19 19 18 17 17 17 16 16 15 15 15 15 15 15 14 14 14 15 16 16 16 17 17 17 17 18 17 18 19 19
18 18 20 21 21 20 20 22 22 22 22 22 22 22 22 22 21 22 22 21 20 20 19 18 18 18 18 18 18 18 17 17 17 17 17 17 17 18 19 19 19 19 19 19 20 19 19 20 21
21 20 20 22 23 22 22 24 23 20 22 22 22 24 24 24 23 22 23 24 22 22 21 21 20 20 20 20 20 20 19 19 19 19 19 19 19 20 20 20 20 21 21 22 22 21 22 23 24

GEFSSGP_500_meanwind_252.txt.gz
Wind_Speed
17 18 18 18 19 20 20 19 18 16 13 13 12 11 10 9 7 6 6 6 6 5 3 2 3 3 5 6 7 8 8 8 9 10 10 10 10 9 9 10 10 10 9 8 8 8 8 8 9
17 17 18 18 21 21 20 19 17 15 14 14 13 12 11 9 8 7 6 7 7 6 4 3 4 3 5 6 7 8 9 9 10 11 10 10 10 10 10 10 10 10 9 8 8 9 8 9 9
18 18 18 19 22 22 21 19 18 17 16 15 14 13 11 9 9 8 8 8 8 7 6 4 3 3 5 6 7 8 9 10 10 11 11 11 11 10 11 10 10 9 9 8 8 9 8 8 8
18 19 19 21 22 22 21 20 19 18 16 16 16 14 12 11 10 10 9 8 8 8 7 5 4 4 5 6 7 8 9 10 10 11 12 11 11 10 10 9 9 9 8 8 9 9 8 8 7
17 18 20 22 22 22 21 20 19 17 16 16 16 15 13 12 11 11 10 10 9 9 7 6 4 5 6 7 7 9 9 9 10 10 11 11 9 9 9 9 8 8 8 8 8 8 7 7 7
17 19 21 21 21 21 20 19 18 16 16 16 15 15 14 13 12 12 12 11 10 9 8 8 7 6 7 7 8 9 9 10 10 10 11 11 10 9 9 9 9 8 8 7 8 7 7 7 6
16 18 20 19 19 19 19 18 16 16 16 16 16 16 15 13 13 13 13 12 10 9 7 7 7 7 7 7 8 9 9 10 10 10 10 10 10 9 9 9 9 7 7 7 7 7 7 6 6
16 17 17 16 17 17 17 17 16 16 17 16 17 16 15 14 14 14 13 12 11 10 8 6 7 8 8 7 8 9 9 10 10 10 10 10 10 9 9 9 8 7 6 6 6 7 7 7 7
13 14 14 14 15 15 16 16 17 17 17 18 17 16 16 15 14 14 14 13 12 11 9 8 8 8 8 8 8 9 10 10 10 10 11 10 10 9 9 8 8 7 7 6 5 6 7 8 7
11 11 13 12 14 15 15 15 17 17 18 17 17 17 17 16 15 14 14 14 13 13 11 9 9 8 9 9 8 9 10 10 10 10 10 10 10 9 9 9 8 7 7 6 5 5 6 8 7
8 8 10 10 12 13 13 13 15 16 17 17 16 17 17 17 16 14 13 13 13 13 12 11 9 9 9 9 9 9 9 9 10 10 10 9 10 9 8 8 7 7 6 6 5 5 5 5 5
5 5 6 7 9 11 12 13 14 15 15 16 16 16 17 17 17 16 14 14 14 13 13 12 11 10 9 9 8 9 9 9 9 9 10 10 10 9 8 8 8 7 6 5 5 4 4 4 4
4 2 4 6 7 9 11 11 13 14 14 15 15 15 15 16 16 16 15 14 13 12 12 12 11 11 10 8 8 8 8 8 9 9 9 10 10 9 8 7 7 7 6 5 5 5 4 5 5
4 2 2 5 7 8 10 11 12 13 13 14 14 14 14 14 15 15 14 13 12 11 11 10 10 10 9 8 8 8 8 7 8 8 8 9 9 9 8 7 7 7 6 5 5 4 4 5 6
6 3 1 4 6 7 8 10 11 11 12 14 14 13 13 14 14 14 13 13 12 11 10 10 10 10 9 8 8 7 7 6 6 7 8 8 8 8 8 7 7 7 6 5 5 5 5 5 6
5 4 2 1 4 5 6 8 10 11 13 14 14 12 12 13 13 13 12 12 11 10 9 9 9 9 9 7 7 7 6 5 5 5 6 7 8 8 7 7 7 7 6 6 5 5 5 5 5
6 4 3 2 2 3 5 6 9 10 12 14 14 12 11 11 12 12 11 11 11 9 8 8 8 7 7 7 6 5 5 5 4 4 5 6 7 7 7 6 5 6 6 6 6 6 5 5 6
7 5 5 4 3 4 5 6 8 9 10 12 12 12 11 10 11 10 10 10 10 9 8 8 7 6 5 5 5 5 3 3 4 4 4 4 5 6 6 6 5 5 5 5 6 6 5 5 6
9 7 6 6 6 6 6 8 8 9 9 10 11 11 10 10 9 9 10 10 9 8 8 7 6 6 5 4 4 4 3 3 3 3 3 4 5 6 6 5 5 5 5 5 6 7 7 6 7
10 10 9 8 9 10 9 9 10 11 10 10 10 9 8 10 9 8 9 9 9 8 7 7 6 5 4 4 3 3 2 2 2 2 3 3 4 5 6 5 5 5 6 6 6 7 7 7 7
12 13 12 11 11 11 12 12 12 12 12 12 12 11 9 11 11 10 8 8 8 8 7 6 6 5 4 4 3 3 2 0 1 2 2 3 4 5 6 5 5 6 6 6 6 6 7 7 7
12 12 13 13 13 13 13 15 13 13 14 13 14 13 11 11 12 10 7 7 8 7 7 6 5 6 5 4 4 3 3 3 2 2 3 3 4 5 5 5 6 6 7 7 7 7 7 7 7
14 14 14 14 15 16 16 17 15 15 16 15 14 13 11 12 11 9 8 7 7 7 6 5 5 5 5 5 4 3 2 2 3 4 4 4 4 5 5 4 4 5 6 7 8 8 8 8 9
15 16 17 17 18 17 16 18 18 17 17 17 14 12 12 12 11 10 9 9 7 7 7 6 5 6 5 5 5 4 4 3 3 4 4 5 6 5 5 4 5 6 7 7 8 9 9 9 9
16 17 18 18 17 16 16 18 18 17 17 19 16 13 13 13 13 12 11 11 9 8 8 7 6 6 6 6 6 6 5 5 5 6 6 6 6 7 7 7 7 8 8 9 9 10 10 10 10
17 18 18 18 17 17 18 19 17 17 17 18 17 15 14 14 14 13 12 11 10 9 9 8 8 8 8 8 7 7 7 7 7 8 8 8 9 9 9 9 9 9 10 10 11 11 11 12 13
17 18 18 19 20 20 20 20 17 17 16 16 16 15 14 15 15 14 14 14 12 12 11 11 10 10 10 9 9 9 9 9 9 9 9 9 10 10 11 11 11 12 12 12 12 13 13 14 15
18 18 19 21 22 23 22 20 16 16 16 16 16 15 15 15 15 15 15 14 12 12 13 12 11 11 11 11 11 11 11 11 11 11 11 11 11 12 12 13 13 13 14 15 15 15 16 16 17
18 20 21 21 22 24 23 21 18 17 18 19 18 18 16 16 17 16 15 15 14 13 14 14 13 13 13 13 13 13 13 12 13 13 14 14 14 14 15 15 15 16 16 16 17 18 18 19 19
20 21 22 23 23 23 24 22 20 20 20 20 20 19 18 18 17 16 15 15 16 16 16 15 14 15 15 16 16 16 16 15 15 15 16 17 17 17 17 18 18 18 18 19 19 19 20 20 21

GEFSSGP_500_meanwind_258.txt.gz
Wind_Speed
17 17 16 15 16 16 17 17 17 16 14 13 12 11 9 8 7 7 6 6 5 4 3 4 6 7 8 8 8 9 9 8 9 9 8 8 7 8 8 7 7 7 6 7 7 6 6 6 6
17 16 16 15 17 17 18 19 18 17 15 14 13 12 10 9 8 8 7 6 4 3 4 4 6 7 7 8 8 9 9 9 9 9 8 8 8 8 8 7 6 6 6 6 6 6 6 6 5
17 16 16 17 17 18 19 19 19 17 16 15 14 13 11 9 8 8 8 7 5 4 4 5 6 7 6 6 7 9 9 9 9 9 8 8 8 8 8 7 7 6 6 6 5 5 5 5 5
16 17 17 18 18 18 18 18 19 18 17 16 15 14 12 10 9 8 8 7 6 5 5 6 6 7 7 6 7 8 9 10 10 9 8 8 8 8 8 7 7 6 6 6 6 5 4 4 4
15 16 18 19 19 18 18 19 19 19 19 18 16 15 13 12 10 9 8 7 6 4 4 6 7 7 7 7 7 8 8 10 10 9 9 9 8 8 7 6 6 5 6 5 5 5 5 4 3
16 16 18 19 20 20 19 20 20 20 19 18 16 15 14 13 11 10 8 7 6 5 4 6 7 8 7 8 8 8 9 9 10 10 9 9 8 7 7 6 6 5 5 5 5 5 4 4 3
16 17 18 19 20 20 20 20 19 19 18 17 16 16 15 14 12 11 10 8 7 6 5 7 8 8 7 8 8 8 9 9 10 9 9 8 8 7 7 6 6 5 5 5 5 4 4 4 3
14 15 17 18 18 19 19 19 19 18 17 17 17 17 16 14 13 12 11 10 8 7 6 7 8 7 6 7 8 9 9 9 9 9 9 9 8 7 7 6 6 6 6 5 5 5 5 5 5
12 14 15 16 17 18 18 19 18 17 17 17 17 17 16 15 14 12 12 11 10 9 8 8 7 6 6 7 8 9 9 9 9 9 9 8 8 8 7 6 6 6 5 6 5 5 4 6 6
11 12 13 14 16 17 17 18 17 17 17 17 16 16 16 15 14 14 13 12 11 9 8 7 7 6 6 7 7 8 9 9 9 9 8 8 7 8 7 7 6 6 5 5 5 5 4 5 5
9 10 10 12 13 15 16 17 16 17 17 17 16 16 16 15 14 14 13 12 12 10 9 8 7 6 7 7 7 7 8 8 8 8 7 7 7 7 7 8 7 7 6 5 5 5 4 3 4
6 8 9 10 11 13 14 15 16 16 16 16 16 17 16 15 14 13 13 12 12 11 9 7 7 7 8 7 7 7 8 8 8 7 7 7 7 8 7 8 7 7 7 6 6 5 4 4 4
4 5 6 8 9 10 12 13 14 14 14 14 15 16 16 15 14 13 12 12 12 11 10 8 7 7 7 6 6 8 7 7 8 7 6 6 8 7 7 7 7 6 6 7 7 5 4 4 4
2 2 4 5 6 7 9 11 11 12 12 13 14 15 15 14 14 13 11 11 11 9 8 7 7 6 6 6 6 7 7 6 7 7 6 7 7 7 7 7 7 7 6 6 6 5 4 4 4
3 1 1 2 3 5 7 9 9 10 10 11 12 13 14 13 13 12 11 10 9 9 7 6 6 6 6 5 6 6 6 5 6 6 6 6 6 6 6 7 7 7 6 6 6 5 5 4 5
5 4 2 1 1 2 4 6 6 8 9 9 11 12 13 14 13 11 10 10 9 8 7 6 5 4 4 5 5 5 4 4 4 5 6 6 6 6 7 6 6 7 7 7 6 6 6 6 6
7 6 5 3 2 1 2 3 4 6 8 8 9 10 11 12 12 11 10 9 9 7 6 5 5 4 3 3 4 4 3 3 3 4 5 5 6 6 6 6 7 6 7 7 7 7 8 8 8
9 8 7 6 5 4 4 3 3 4 5 6 7 8 9 10 10 10 9 9 8 7 6 5 3 3 2 1 2 2 2 3 4 4 4 5 5 6 7 8 8 7 7 8 8 8 8 9 9
13 12 10 9 9 8 7 6 4 4 5 5 5 7 7 8 8 8 8 8 7 7 5 4 2 1 1 1 1 1 1 2 3 3 4 5 6 7 7 8 9 9 9 8 9 9 9 10 10
15 14 12 12 12 11 10 9 7 6 6 6 6 6 6 6 6 7 7 7 6 6 5 4 3 2 1 2 1 1 2 3 3 3 4 6 7 7 8 8 8 9 9 9 9 10 10 10 10
17 16 15 14 14 14 13 11 10 8 8 8 8 8 7 6 5 6 6 7 6 6 5 4 3 2 2 3 3 2 3 3 4 5 5 6 7 8 8 8 9 9 9 9 10 11 11 10 11
17 17 17 16 16 16 16 15 12 11 11 10 10 9 9 8 7 6 7 7 7 5 4 4 3 2 3 3 3 3 4 5 5 5 5 7 8 8 8 9 9 10 10 10 11 11 10 10 11
18 18 18 17 17 17 17 17 14 14 13 12 12 11 11 10 8 8 8 8 8 5 4 4 4 3 3 3 4 4 5 5 6 6 6 7 9 9 9 10 10 10 11 11 12 12 11 10 11
18 19 19 20 19 19 18 19 16 15 15 14 14 13 12 11 10 10 9 9 9 7 6 5 4 4 4 4 4 5 5 6 7 8 8 9 9 10 11 11 12 12 12 12 13 13 12 12 12
19 19 20 21 21 21 19 20 18 17 16 15 14 14 13 12 11 10 11 9 9 9 7 6 6 6 6 6 6 7 7 7 8 9 10 11 11 12 12 13 13 13 12 13 14 14 14 14 14
20 20 21 22 22 21 21 20 18 17 16 14 14 14 13 12 11 12 11 10 10 10 9 8 9 9 9 9 9 9 10 10 10 10 11 11 12 13 13 14 14 14 14 14 14 15 15 15 15
20 21 21 23 23 23 22 19 18 17 16 15 15 14 13 12 13 13 13 13 13 13 12 10 11 11 11 11 11 11 11 11 11 12 13 13 14 14 15 16 16 16 16 16 16 16 16 17 18
21 21 21 22 23 22 22 19 17 16 16 16 16 14 14 13 13 14 14 14 14 14 14 12 13 12 12 12 13 13 13 13 13 14 14 14 14 15 15 16 18 18 18 19 19 19 20 20 20
22 22 23 23 23 23 22 19 17 17 16 16 15 13 13 14 13 15 15 15 15 15 16 16 15 14 14 14 15 15 15 15 15 16 16 16 17 17 18 18 19 19 19 20 20 21 21 21 22
23 23 24 24 24 23 22 19 17 18 17 17 15 14 14 13 14 16 17 16 16 17 17 18 17 16 16 17 17 17 18 18 18 19 19 20 20 20 21 21 21 21 21 21 21 22 22 23 24